Location: *
(13.2257°S, 48.7193°W)
Time: 10:01:38
(UTC+00:00)

CZ-3 R/B - Pass Details

Date: 13 February 2026
Orbit: 557 x 9999 km, 28.2° (Epoch: 10 March)

Event Time Altitude Azimuth Distance (km) Brightness Sun altitude
Rises 07:36:50 0° 252° (WSW) 11,110 6.5 -23.1°
Reaches altitude 10° 07:48:48 10° 246° (WSW) 8,124 5.8 -20.4°
Maximum altitude 08:08:38 44° 178° (S) 2,338 3.6 -15.8°
Drops below altitude 10° 08:15:05 10° 106° (ESE) 2,808 5.4 -14.4°
Sets 08:16:58 0° 97° (E) 3,416 6.2 -13.9°
